owner,sensor,date,latitude,longitude,vertical_datum,sea_water_practical_salinity,qcFlag 
SCCF RECON,ioos:station:SCCF:13:1,2010-09-01T00:00:00Z,26.5255,-82.0032,2.403,22.24,1111122 
SCCF RECON,ioos:station:SCCF:13:1,2010-09-01T01:00:00Z,26.5255,-82.0032,2.423,24.06,1111122 
SCCF RECON,ioos:station:SCCF:13:1,2010-09-01T02:00:00Z,26.5255,-82.0032,2.419,24.93,1111122 
SCCF RECON,ioos:station:SCCF:13:1,2010-09-01T03:00:00Z,26.5255,-82.0032,2.4,24.81,1111122 
SCCF RECON,ioos:station:SCCF:13:1,2010-09-01T04:00:00Z,26.5255,-82.0032,2.37,24.33,1111122 
SCCF RECON,ioos:station:SCCF:13:1,2010-09-01T05:00:00Z,26.5255,-82.0032,2.39,24.95,1111122 
SCCF RECON,ioos:station:SCCF:13:1,2010-09-01T06:00:00Z,26.5255,-82.0032,2.42,24.98,1111122 
SCCF RECON,ioos:station:SCCF:13:1,2010-09-01T07:00:00Z,26.5255,-82.0032,2.45,24.09,1111122 
SCCF RECON,ioos:station:SCCF:13:1,2010-09-01T08:00:00Z,26.5255,-82.0032,2.48,24.03,1111122 
SCCF RECON,ioos:station:SCCF:13:1,2010-09-01T09:00:00Z,26.5255,-82.0032,2.55,24.18,1111122 
SCCF RECON,ioos:station:SCCF:13:1,2010-09-01T10:00:00Z,26.5255,-82.0032,2.61,27.09,1111122 
SCCF RECON,ioos:station:SCCF:13:1,2010-09-01T11:00:00Z,26.5255,-82.0032,2.65,27.85,1111122 
SCCF RECON,ioos:station:SCCF:13:1,2010-09-01T12:00:00Z,26.5255,-82.0032,2.61,28.4,1111122 
SCCF RECON,ioos:station:SCCF:13:1,2010-09-01T13:00:00Z,26.5255,-82.0032,2.52,29.05,1111122 
SCCF RECON,ioos:station:SCCF:13:1,2010-09-01T14:00:00Z,26.5255,-82.0032,2.398,25.8,1111122 
SCCF RECON,ioos:station:SCCF:13:1,2010-09-01T15:00:00Z,26.5255,-82.0032,2.302,13.99,1111122 
SCCF RECON,ioos:station:SCCF:13:1,2010-09-01T16:00:00Z,26.5255,-82.0032,2.232,12.75,1111122 
SCCF RECON,ioos:station:SCCF:13:1,2010-09-01T17:00:00Z,26.5255,-82.0032,2.148,10.91,1111122 
SCCF RECON,ioos:station:SCCF:13:1,2010-09-01T18:00:00Z,26.5255,-82.0032,2.093,10.88,1111122 
SCCF RECON,ioos:station:SCCF:13:1,2010-09-01T19:00:00Z,26.5255,-82.0032,2.11,9.85,1111122 
SCCF RECON,ioos:station:SCCF:13:1,2010-09-01T20:00:00Z,26.5255,-82.0032,2.17,8.82,1111122 
SCCF RECON,ioos:station:SCCF:13:1,2010-09-01T21:00:00Z,26.5255,-82.0032,2.221,8.13,1111122 
SCCF RECON,ioos:station:SCCF:13:1,2010-09-01T22:00:00Z,26.5255,-82.0032,2.28,8.66,1111122 
SCCF RECON,ioos:station:SCCF:13:1,2010-09-01T23:00:00Z,26.5255,-82.0032,2.32,15.82,1111122 
SCCF RECON,ioos:station:SCCF:13:1,2010-09-02T00:00:00Z,26.5255,-82.0032,2.37,19.05,1111122 
SCCF RECON,ioos:station:SCCF:13:1,2010-09-02T01:00:00Z,26.5255,-82.0032,2.41,21.28,1111122 
SCCF RECON,ioos:station:SCCF:13:1,2010-09-02T02:00:00Z,26.5255,-82.0032,2.429,24.05,1111122 
SCCF RECON,ioos:station:SCCF:13:1,2010-09-02T03:00:00Z,26.5255,-82.0032,2.42,24.89,1111122 
SCCF RECON,ioos:station:SCCF:13:1,2010-09-02T04:00:00Z,26.5255,-82.0032,2.391,25.3,1111122 
SCCF RECON,ioos:station:SCCF:13:1,2010-09-02T05:00:00Z,26.5255,-82.0032,2.41,25.54,1111122 
SCCF RECON,ioos:station:SCCF:13:1,2010-09-02T06:00:00Z,26.5255,-82.0032,2.44,25.37,1111122 
SCCF RECON,ioos:station:SCCF:13:1,2010-09-02T07:00:00Z,26.5255,-82.0032,2.45,25.18,1111122 
SCCF RECON,ioos:station:SCCF:13:1,2010-09-02T08:00:00Z,26.5255,-82.0032,2.51,25.12,1111122 
SCCF RECON,ioos:station:SCCF:13:1,2010-09-02T09:00:00Z,26.5255,-82.0032,2.58,25.29,1111122 
SCCF RECON,ioos:station:SCCF:13:1,2010-09-02T10:00:00Z,26.5255,-82.0032,2.64,25.46,1111122 
SCCF RECON,ioos:station:SCCF:13:1,2010-09-02T11:00:00Z,26.5255,-82.0032,2.7,28.07,1111122 
SCCF RECON,ioos:station:SCCF:13:1,2010-09-02T12:00:00Z,26.5255,-82.0032,2.73,28.33,1111122 
SCCF RECON,ioos:station:SCCF:13:1,2010-09-02T13:00:00Z,26.5255,-82.0032,2.69,28.96,1111122 
SCCF RECON,ioos:station:SCCF:13:1,2010-09-02T14:00:00Z,26.5255,-82.0032,2.61,29.74,1111122 
SCCF RECON,ioos:station:SCCF:13:1,2010-09-02T15:00:00Z,26.5255,-82.0032,2.51,27.55,1111122 
SCCF RECON,ioos:station:SCCF:13:1,2010-09-02T16:00:00Z,26.5255,-82.0032,2.42,19.7,1111122 
SCCF RECON,ioos:station:SCCF:13:1,2010-09-02T17:00:00Z,26.5255,-82.0032,2.34,13.7,1111122 
SCCF RECON,ioos:station:SCCF:13:1,2010-09-02T18:00:00Z,26.5255,-82.0032,2.26,11.54,1111122 
SCCF RECON,ioos:station:SCCF:13:1,2010-09-02T19:00:00Z,26.5255,-82.0032,2.2,11.78,1111122 
SCCF RECON,ioos:station:SCCF:13:1,2010-09-02T20:00:00Z,26.5255,-82.0032,2.19,11.51,1111122 
SCCF RECON,ioos:station:SCCF:13:1,2010-09-02T21:00:00Z,26.5255,-82.0032,2.22,11.1,1111122 
SCCF RECON,ioos:station:SCCF:13:1,2010-09-02T22:00:00Z,26.5255,-82.0032,2.29,10.89,1111122 
SCCF RECON,ioos:station:SCCF:13:1,2010-09-02T23:00:00Z,26.5255,-82.0032,2.36,11.17,1111122 
SCCF RECON,ioos:station:SCCF:13:1,2010-09-03T00:00:00Z,26.5255,-82.0032,2.41,16.38,1111122 
SCCF RECON,ioos:station:SCCF:13:1,2010-09-03T01:00:00Z,26.5255,-82.0032,2.468,17.89,1111122 
SCCF RECON,ioos:station:SCCF:13:1,2010-09-03T02:00:00Z,26.5255,-82.0032,2.52,20.35,1111122 
SCCF RECON,ioos:station:SCCF:13:1,2010-09-03T03:00:00Z,26.5255,-82.0032,2.55,23.48,1111122 
SCCF RECON,ioos:station:SCCF:13:1,2010-09-03T04:00:00Z,26.5255,-82.0032,2.554,25.29,1111122 
SCCF RECON,ioos:station:SCCF:13:1,2010-09-03T05:00:00Z,26.5255,-82.0032,2.54,26.49,1111122 
SCCF RECON,ioos:station:SCCF:13:1,2010-09-03T06:00:00Z,26.5255,-82.0032,2.52,26.35,1111122 
SCCF RECON,ioos:station:SCCF:13:1,2010-09-03T07:00:00Z,26.5255,-82.0032,2.53,26.28,1111122 
SCCF RECON,ioos:station:SCCF:13:1,2010-09-03T08:00:00Z,26.5255,-82.0032,2.53,26.81,1111122 
SCCF RECON,ioos:station:SCCF:13:1,2010-09-03T09:00:00Z,26.5255,-82.0032,2.56,27.13,1111122 
SCCF RECON,ioos:station:SCCF:13:1,2010-09-03T10:00:00Z,26.5255,-82.0032,2.63,27.78,1111122 
SCCF RECON,ioos:station:SCCF:13:1,2010-09-03T11:00:00Z,26.5255,-82.0032,2.68,27.91,1111122 
SCCF RECON,ioos:station:SCCF:13:1,2010-09-03T12:00:00Z,26.5255,-82.0032,2.71,26.96,1111122 
SCCF RECON,ioos:station:SCCF:13:1,2010-09-03T13:00:00Z,26.5255,-82.0032,2.72,29.12,1111122 
SCCF RECON,ioos:station:SCCF:13:1,2010-09-03T14:00:00Z,26.5255,-82.0032,2.72,28.95,1111122 
SCCF RECON,ioos:station:SCCF:13:1,2010-09-03T15:00:00Z,26.5255,-82.0032,2.651,29.31,1111122 
SCCF RECON,ioos:station:SCCF:13:1,2010-09-03T16:00:00Z,26.5255,-82.0032,2.534,28.37,1111122 
SCCF RECON,ioos:station:SCCF:13:1,2010-09-03T17:00:00Z,26.5255,-82.0032,2.421,19.26,1111122 
SCCF RECON,ioos:station:SCCF:13:1,2010-09-03T18:00:00Z,26.5255,-82.0032,2.33,14.06,1111122 
SCCF RECON,ioos:station:SCCF:13:1,2010-09-03T19:00:00Z,26.5255,-82.0032,1.0,-9999.0,1111122 
SCCF RECON,ioos:station:SCCF:13:1,2010-09-03T20:00:00Z,26.5255,-82.0032,2.169,11.31,1111122 
SCCF RECON,ioos:station:SCCF:13:1,2010-09-03T21:00:00Z,26.5255,-82.0032,2.154,11.82,1111122 
SCCF RECON,ioos:station:SCCF:13:1,2010-09-03T22:00:00Z,26.5255,-82.0032,2.209,11.44,1111122 
SCCF RECON,ioos:station:SCCF:13:1,2010-09-03T23:00:00Z,26.5255,-82.0032,2.3,10.82,1111122 
SCCF RECON,ioos:station:SCCF:13:1,2010-09-04T00:00:00Z,26.5255,-82.0032,2.372,11.01,1111122 
SCCF RECON,ioos:station:SCCF:13:1,2010-09-04T01:00:00Z,26.5255,-82.0032,2.43,13.04,1111122 
SCCF RECON,ioos:station:SCCF:13:1,2010-09-04T02:00:00Z,26.5255,-82.0032,2.509,17.07,1111122 
SCCF RECON,ioos:station:SCCF:13:1,2010-09-04T03:00:00Z,26.5255,-82.0032,2.58,21.03,1111122 
SCCF RECON,ioos:station:SCCF:13:1,2010-09-04T04:00:00Z,26.5255,-82.0032,2.609,23.49,1111122 
SCCF RECON,ioos:station:SCCF:13:1,2010-09-04T05:00:00Z,26.5255,-82.0032,2.622,24.05,1111122 
SCCF RECON,ioos:station:SCCF:13:1,2010-09-04T06:00:00Z,26.5255,-82.0032,2.61,25.36,1111122 
SCCF RECON,ioos:station:SCCF:13:1,2010-09-04T07:00:00Z,26.5255,-82.0032,2.56,25.65,1111122 
SCCF RECON,ioos:station:SCCF:13:1,2010-09-04T08:00:00Z,26.5255,-82.0032,2.51,23.08,1111122 
SCCF RECON,ioos:station:SCCF:13:1,2010-09-04T09:00:00Z,26.5255,-82.0032,2.52,23.62,1111122 
SCCF RECON,ioos:station:SCCF:13:1,2010-09-04T10:00:00Z,26.5255,-82.0032,2.62,24.39,1111122 
SCCF RECON,ioos:station:SCCF:13:1,2010-09-04T11:00:00Z,26.5255,-82.0032,2.69,25.34,1111122 
SCCF RECON,ioos:station:SCCF:13:1,2010-09-04T12:00:00Z,26.5255,-82.0032,2.749,25.5,1111122 
SCCF RECON,ioos:station:SCCF:13:1,2010-09-04T13:00:00Z,26.5255,-82.0032,2.776,27.75,1111122 
SCCF RECON,ioos:station:SCCF:13:1,2010-09-04T14:00:00Z,26.5255,-82.0032,2.81,27.94,1111122 
SCCF RECON,ioos:station:SCCF:13:1,2010-09-04T15:00:00Z,26.5255,-82.0032,2.82,27.65,1111122 
SCCF RECON,ioos:station:SCCF:13:1,2010-09-04T16:00:00Z,26.5255,-82.0032,2.76,29.04,1111122 
SCCF RECON,ioos:station:SCCF:13:1,2010-09-04T17:00:00Z,26.5255,-82.0032,2.65,28.37,1111122 
SCCF RECON,ioos:station:SCCF:13:1,2010-09-04T18:00:00Z,26.5255,-82.0032,2.48,25.05,1111122 
SCCF RECON,ioos:station:SCCF:13:1,2010-09-04T19:00:00Z,26.5255,-82.0032,2.39,22.89,1111122 
SCCF RECON,ioos:station:SCCF:13:1,2010-09-04T20:00:00Z,26.5255,-82.0032,2.319,20.27,1111122 
SCCF RECON,ioos:station:SCCF:13:1,2010-09-04T21:00:00Z,26.5255,-82.0032,2.236,16.87,1111122 
SCCF RECON,ioos:station:SCCF:13:1,2010-09-04T22:00:00Z,26.5255,-82.0032,2.18,15.91,1111122 
SCCF RECON,ioos:station:SCCF:13:1,2010-09-04T23:00:00Z,26.5255,-82.0032,2.21,14.66,1111122 
SCCF RECON,ioos:station:SCCF:13:1,2010-09-05T00:00:00Z,26.5255,-82.0032,2.331,13.12,1111122 
SCCF RECON,ioos:station:SCCF:13:1,2010-09-05T01:00:00Z,26.5255,-82.0032,2.42,13.17,1111122 
SCCF RECON,ioos:station:SCCF:13:1,2010-09-05T02:00:00Z,26.5255,-82.0032,2.49,15.8,1111122 
SCCF RECON,ioos:station:SCCF:13:1,2010-09-05T03:00:00Z,26.5255,-82.0032,2.55,18.74,1111122 
SCCF RECON,ioos:station:SCCF:13:1,2010-09-05T04:00:00Z,26.5255,-82.0032,2.6,20.78,1111122 
SCCF RECON,ioos:station:SCCF:13:1,2010-09-05T05:00:00Z,26.5255,-82.0032,2.619,23.6,1111122 
SCCF RECON,ioos:station:SCCF:13:1,2010-09-05T06:00:00Z,26.5255,-82.0032,2.6,24.93,1111122 
SCCF RECON,ioos:station:SCCF:13:1,2010-09-05T07:00:00Z,26.5255,-82.0032,2.55,26.15,1111122 
SCCF RECON,ioos:station:SCCF:13:1,2010-09-05T08:00:00Z,26.5255,-82.0032,2.481,23.56,1111122 
SCCF RECON,ioos:station:SCCF:13:1,2010-09-05T09:00:00Z,26.5255,-82.0032,2.43,23.06,1111122 
SCCF RECON,ioos:station:SCCF:13:1,2010-09-05T10:00:00Z,26.5255,-82.0032,2.45,18.81,1111122 
SCCF RECON,ioos:station:SCCF:13:1,2010-09-05T11:00:00Z,26.5255,-82.0032,2.54,19.06,1111122 
SCCF RECON,ioos:station:SCCF:13:1,2010-09-05T12:00:00Z,26.5255,-82.0032,2.66,21.18,1111122 
SCCF RECON,ioos:station:SCCF:13:1,2010-09-05T13:00:00Z,26.5255,-82.0032,2.73,22.53,1111122 
SCCF RECON,ioos:station:SCCF:13:1,2010-09-05T14:00:00Z,26.5255,-82.0032,2.75,25.37,1111122 
SCCF RECON,ioos:station:SCCF:13:1,2010-09-05T15:00:00Z,26.5255,-82.0032,2.81,28.15,1111122 
SCCF RECON,ioos:station:SCCF:13:1,2010-09-05T16:00:00Z,26.5255,-82.0032,2.83,28.08,1111122 
SCCF RECON,ioos:station:SCCF:13:1,2010-09-05T17:00:00Z,26.5255,-82.0032,2.742,28.8,1111122 
SCCF RECON,ioos:station:SCCF:13:1,2010-09-05T18:00:00Z,26.5255,-82.0032,2.613,28.69,1111122 
SCCF RECON,ioos:station:SCCF:13:1,2010-09-05T19:00:00Z,26.5255,-82.0032,2.503,26.36,1111122 
SCCF RECON,ioos:station:SCCF:13:1,2010-09-05T20:00:00Z,26.5255,-82.0032,2.406,21.56,1111122 
SCCF RECON,ioos:station:SCCF:13:1,2010-09-05T21:00:00Z,26.5255,-82.0032,2.309,17.99,1111122 
SCCF RECON,ioos:station:SCCF:13:1,2010-09-05T22:00:00Z,26.5255,-82.0032,2.216,15.38,1111122 
SCCF RECON,ioos:station:SCCF:13:1,2010-09-05T23:00:00Z,26.5255,-82.0032,2.17,13.81,1111122 
SCCF RECON,ioos:station:SCCF:13:1,2010-09-06T00:00:00Z,26.5255,-82.0032,2.207,13.12,1111122 
SCCF RECON,ioos:station:SCCF:13:1,2010-09-06T01:00:00Z,26.5255,-82.0032,2.33,12.29,1111122 
SCCF RECON,ioos:station:SCCF:13:1,2010-09-06T02:00:00Z,26.5255,-82.0032,2.43,11.44,1111122 
SCCF RECON,ioos:station:SCCF:13:1,2010-09-06T03:00:00Z,26.5255,-82.0032,2.52,14.41,1111122 
SCCF RECON,ioos:station:SCCF:13:1,2010-09-06T04:00:00Z,26.5255,-82.0032,2.588,18.27,1111122 
SCCF RECON,ioos:station:SCCF:13:1,2010-09-06T05:00:00Z,26.5255,-82.0032,2.62,22.43,1111122 
SCCF RECON,ioos:station:SCCF:13:1,2010-09-06T06:00:00Z,26.5255,-82.0032,2.59,25.23,1111122 
SCCF RECON,ioos:station:SCCF:13:1,2010-09-06T07:00:00Z,26.5255,-82.0032,2.54,25.62,1111122 
SCCF RECON,ioos:station:SCCF:13:1,2010-09-06T08:00:00Z,26.5255,-82.0032,2.49,25.83,1111122 
SCCF RECON,ioos:station:SCCF:13:1,2010-09-06T09:00:00Z,26.5255,-82.0032,2.41,24.71,1111122 
SCCF RECON,ioos:station:SCCF:13:1,2010-09-06T10:00:00Z,26.5255,-82.0032,2.42,20.84,1111122 
SCCF RECON,ioos:station:SCCF:13:1,2010-09-06T11:00:00Z,26.5255,-82.0032,2.43,16.0,1111122 
SCCF RECON,ioos:station:SCCF:13:1,2010-09-06T12:00:00Z,26.5255,-82.0032,2.55,21.22,1111122 
SCCF RECON,ioos:station:SCCF:13:1,2010-09-06T13:00:00Z,26.5255,-82.0032,2.691,22.64,1111122 
SCCF RECON,ioos:station:SCCF:13:1,2010-09-06T14:00:00Z,26.5255,-82.0032,2.772,24.35,1111122 
SCCF RECON,ioos:station:SCCF:13:1,2010-09-06T15:00:00Z,26.5255,-82.0032,2.854,28.24,1111122 
SCCF RECON,ioos:station:SCCF:13:1,2010-09-06T16:00:00Z,26.5255,-82.0032,2.92,29.81,1111122 
SCCF RECON,ioos:station:SCCF:13:1,2010-09-06T17:00:00Z,26.5255,-82.0032,2.921,29.23,1111122 
SCCF RECON,ioos:station:SCCF:13:1,2010-09-06T18:00:00Z,26.5255,-82.0032,2.84,29.29,1111122 
SCCF RECON,ioos:station:SCCF:13:1,2010-09-06T19:00:00Z,26.5255,-82.0032,2.69,29.28,1111122 
SCCF RECON,ioos:station:SCCF:13:1,2010-09-06T20:00:00Z,26.5255,-82.0032,2.558,26.95,1111122 
SCCF RECON,ioos:station:SCCF:13:1,2010-09-06T21:00:00Z,26.5255,-82.0032,2.455,24.5,1111122 
SCCF RECON,ioos:station:SCCF:13:1,2010-09-06T22:00:00Z,26.5255,-82.0032,2.367,21.52,1111122 
SCCF RECON,ioos:station:SCCF:13:1,2010-09-06T23:00:00Z,26.5255,-82.0032,2.325,17.9,1111122 
SCCF RECON,ioos:station:SCCF:13:1,2010-09-07T00:00:00Z,26.5255,-82.0032,2.284,16.85,1111122 
SCCF RECON,ioos:station:SCCF:13:1,2010-09-07T01:00:00Z,26.5255,-82.0032,2.36,15.42,1111122 
SCCF RECON,ioos:station:SCCF:13:1,2010-09-07T02:00:00Z,26.5255,-82.0032,2.5,14.15,1111122 
SCCF RECON,ioos:station:SCCF:13:1,2010-09-07T03:00:00Z,26.5255,-82.0032,2.57,15.04,1111122 
SCCF RECON,ioos:station:SCCF:13:1,2010-09-07T04:00:00Z,26.5255,-82.0032,2.63,18.24,1111122 
SCCF RECON,ioos:station:SCCF:13:1,2010-09-07T05:00:00Z,26.5255,-82.0032,2.687,22.03,1111122 
SCCF RECON,ioos:station:SCCF:13:1,2010-09-07T06:00:00Z,26.5255,-82.0032,2.696,23.93,1111122 
SCCF RECON,ioos:station:SCCF:13:1,2010-09-07T07:00:00Z,26.5255,-82.0032,2.656,25.75,1111122 
SCCF RECON,ioos:station:SCCF:13:1,2010-09-07T08:00:00Z,26.5255,-82.0032,2.57,26.69,1111122 
SCCF RECON,ioos:station:SCCF:13:1,2010-09-07T09:00:00Z,26.5255,-82.0032,2.48,24.01,1111122 
SCCF RECON,ioos:station:SCCF:13:1,2010-09-07T10:00:00Z,26.5255,-82.0032,2.39,15.83,1111122 
SCCF RECON,ioos:station:SCCF:13:1,2010-09-07T11:00:00Z,26.5255,-82.0032,2.36,14.5,1111122 
SCCF RECON,ioos:station:SCCF:13:1,2010-09-07T12:00:00Z,26.5255,-82.0032,2.4,13.18,1111122 
SCCF RECON,ioos:station:SCCF:13:1,2010-09-07T13:00:00Z,26.5255,-82.0032,2.53,12.77,1111122 
SCCF RECON,ioos:station:SCCF:13:1,2010-09-07T14:00:00Z,26.5255,-82.0032,2.667,17.6,1111122 
SCCF RECON,ioos:station:SCCF:13:1,2010-09-07T15:00:00Z,26.5255,-82.0032,2.78,22.61,1111122 
SCCF RECON,ioos:station:SCCF:13:1,2010-09-07T16:00:00Z,26.5255,-82.0032,2.844,26.92,1111122 
SCCF RECON,ioos:station:SCCF:13:1,2010-09-07T17:00:00Z,26.5255,-82.0032,2.895,29.05,1111122 
SCCF RECON,ioos:station:SCCF:13:1,2010-09-07T18:00:00Z,26.5255,-82.0032,2.907,29.29,1111122 
SCCF RECON,ioos:station:SCCF:13:1,2010-09-07T19:00:00Z,26.5255,-82.0032,2.82,29.27,1111122 
SCCF RECON,ioos:station:SCCF:13:1,2010-09-07T20:00:00Z,26.5255,-82.0032,2.69,29.18,1111122 
SCCF RECON,ioos:station:SCCF:13:1,2010-09-07T21:00:00Z,26.5255,-82.0032,2.53,24.02,1111122 
SCCF RECON,ioos:station:SCCF:13:1,2010-09-07T22:00:00Z,26.5255,-82.0032,2.431,17.78,1111122 
SCCF RECON,ioos:station:SCCF:13:1,2010-09-07T23:00:00Z,26.5255,-82.0032,2.355,15.77,1111122 
SCCF RECON,ioos:station:SCCF:13:1,2010-09-08T00:00:00Z,26.5255,-82.0032,2.28,14.33,1111122 
SCCF RECON,ioos:station:SCCF:13:1,2010-09-08T01:00:00Z,26.5255,-82.0032,2.28,14.13,1111122 
SCCF RECON,ioos:station:SCCF:13:1,2010-09-08T02:00:00Z,26.5255,-82.0032,2.46,13.17,1111122 
SCCF RECON,ioos:station:SCCF:13:1,2010-09-08T03:00:00Z,26.5255,-82.0032,2.57,13.3,1111122 
SCCF RECON,ioos:station:SCCF:13:1,2010-09-08T04:00:00Z,26.5255,-82.0032,2.64,16.69,1111122 
SCCF RECON,ioos:station:SCCF:13:1,2010-09-08T05:00:00Z,26.5255,-82.0032,2.71,20.82,1111122 
SCCF RECON,ioos:station:SCCF:13:1,2010-09-08T06:00:00Z,26.5255,-82.0032,2.72,24.27,1111122 
SCCF RECON,ioos:station:SCCF:13:1,2010-09-08T07:00:00Z,26.5255,-82.0032,2.66,26.1,1111122 
SCCF RECON,ioos:station:SCCF:13:1,2010-09-08T08:00:00Z,26.5255,-82.0032,2.54,26.6,1111122 
SCCF RECON,ioos:station:SCCF:13:1,2010-09-08T09:00:00Z,26.5255,-82.0032,2.43,21.65,1111122 
SCCF RECON,ioos:station:SCCF:13:1,2010-09-08T10:00:00Z,26.5255,-82.0032,2.336,13.81,1111122 
SCCF RECON,ioos:station:SCCF:13:1,2010-09-08T11:00:00Z,26.5255,-82.0032,2.27,14.0,1111122 
SCCF RECON,ioos:station:SCCF:13:1,2010-09-08T12:00:00Z,26.5255,-82.0032,2.227,12.29,1111122 
SCCF RECON,ioos:station:SCCF:13:1,2010-09-08T13:00:00Z,26.5255,-82.0032,2.27,11.26,1111122 
SCCF RECON,ioos:station:SCCF:13:1,2010-09-08T14:00:00Z,26.5255,-82.0032,2.45,10.55,1111122 
SCCF RECON,ioos:station:SCCF:13:1,2010-09-08T15:00:00Z,26.5255,-82.0032,2.59,14.46,1111122 
SCCF RECON,ioos:station:SCCF:13:1,2010-09-08T16:00:00Z,26.5255,-82.0032,2.7,20.19,1111122 
SCCF RECON,ioos:station:SCCF:13:1,2010-09-08T17:00:00Z,26.5255,-82.0032,2.783,26.5,1111122 
SCCF RECON,ioos:station:SCCF:13:1,2010-09-08T18:00:00Z,26.5255,-82.0032,2.831,27.66,1111122 
SCCF RECON,ioos:station:SCCF:13:1,2010-09-08T19:00:00Z,26.5255,-82.0032,2.8,27.8,1111122 
SCCF RECON,ioos:station:SCCF:13:1,2010-09-08T20:00:00Z,26.5255,-82.0032,2.71,27.73,1111122 
SCCF RECON,ioos:station:SCCF:13:1,2010-09-08T21:00:00Z,26.5255,-82.0032,2.596,27.88,1111122 
SCCF RECON,ioos:station:SCCF:13:1,2010-09-08T22:00:00Z,26.5255,-82.0032,2.494,25.04,1111122 
SCCF RECON,ioos:station:SCCF:13:1,2010-09-08T23:00:00Z,26.5255,-82.0032,2.4,20.83,1111122 
SCCF RECON,ioos:station:SCCF:13:1,2010-09-09T00:00:00Z,26.5255,-82.0032,2.337,19.28,1111122 
SCCF RECON,ioos:station:SCCF:13:1,2010-09-09T01:00:00Z,26.5255,-82.0032,2.313,14.85,1111122 
SCCF RECON,ioos:station:SCCF:13:1,2010-09-09T02:00:00Z,26.5255,-82.0032,2.438,12.71,1111122 
SCCF RECON,ioos:station:SCCF:13:1,2010-09-09T03:00:00Z,26.5255,-82.0032,2.57,13.71,1111122 
SCCF RECON,ioos:station:SCCF:13:1,2010-09-09T04:00:00Z,26.5255,-82.0032,2.66,18.89,1111122 
SCCF RECON,ioos:station:SCCF:13:1,2010-09-09T05:00:00Z,26.5255,-82.0032,2.73,21.96,1111122 
SCCF RECON,ioos:station:SCCF:13:1,2010-09-09T06:00:00Z,26.5255,-82.0032,2.77,24.77,1111122 
SCCF RECON,ioos:station:SCCF:13:1,2010-09-09T07:00:00Z,26.5255,-82.0032,2.771,27.63,1111122 
SCCF RECON,ioos:station:SCCF:13:1,2010-09-09T08:00:00Z,26.5255,-82.0032,2.68,27.56,1111122 
SCCF RECON,ioos:station:SCCF:13:1,2010-09-09T09:00:00Z,26.5255,-82.0032,2.57,26.87,1111122 
SCCF RECON,ioos:station:SCCF:13:1,2010-09-09T10:00:00Z,26.5255,-82.0032,2.45,21.29,1111122 
SCCF RECON,ioos:station:SCCF:13:1,2010-09-09T11:00:00Z,26.5255,-82.0032,2.36,14.71,1111122 
SCCF RECON,ioos:station:SCCF:13:1,2010-09-09T12:00:00Z,26.5255,-82.0032,2.281,13.94,1111122 
SCCF RECON,ioos:station:SCCF:13:1,2010-09-09T13:00:00Z,26.5255,-82.0032,2.24,12.82,1111122 
SCCF RECON,ioos:station:SCCF:13:1,2010-09-09T14:00:00Z,26.5255,-82.0032,2.31,12.19,1111122 
SCCF RECON,ioos:station:SCCF:13:1,2010-09-09T15:00:00Z,26.5255,-82.0032,2.51,11.52,1111122 
SCCF RECON,ioos:station:SCCF:13:1,2010-09-09T16:00:00Z,26.5255,-82.0032,2.62,15.26,1111122 
SCCF RECON,ioos:station:SCCF:13:1,2010-09-09T17:00:00Z,26.5255,-82.0032,2.7,20.63,1111122 
SCCF RECON,ioos:station:SCCF:13:1,2010-09-09T18:00:00Z,26.5255,-82.0032,2.76,25.66,1111122 
SCCF RECON,ioos:station:SCCF:13:1,2010-09-09T19:00:00Z,26.5255,-82.0032,2.8,27.03,1111122 
SCCF RECON,ioos:station:SCCF:13:1,2010-09-09T20:00:00Z,26.5255,-82.0032,2.79,27.57,1111122 
SCCF RECON,ioos:station:SCCF:13:1,2010-09-09T21:00:00Z,26.5255,-82.0032,2.68,27.89,1111122 
SCCF RECON,ioos:station:SCCF:13:1,2010-09-09T22:00:00Z,26.5255,-82.0032,2.55,27.33,1111122 
SCCF RECON,ioos:station:SCCF:13:1,2010-09-09T23:00:00Z,26.5255,-82.0032,2.47,21.16,1111122 
SCCF RECON,ioos:station:SCCF:13:1,2010-09-10T00:00:00Z,26.5255,-82.0032,2.378,18.48,1111122 
SCCF RECON,ioos:station:SCCF:13:1,2010-09-10T01:00:00Z,26.5255,-82.0032,2.317,15.9,1111122 
SCCF RECON,ioos:station:SCCF:13:1,2010-09-10T02:00:00Z,26.5255,-82.0032,2.333,13.69,1111122 
SCCF RECON,ioos:station:SCCF:13:1,2010-09-10T03:00:00Z,26.5255,-82.0032,2.5,12.54,1111122 
SCCF RECON,ioos:station:SCCF:13:1,2010-09-10T04:00:00Z,26.5255,-82.0032,2.65,15.5,1111122 
SCCF RECON,ioos:station:SCCF:13:1,2010-09-10T05:00:00Z,26.5255,-82.0032,2.72,20.16,1111122 
SCCF RECON,ioos:station:SCCF:13:1,2010-09-10T06:00:00Z,26.5255,-82.0032,2.77,23.47,1111122 
SCCF RECON,ioos:station:SCCF:13:1,2010-09-10T07:00:00Z,26.5255,-82.0032,2.792,27.49,1111122 
SCCF RECON,ioos:station:SCCF:13:1,2010-09-10T08:00:00Z,26.5255,-82.0032,2.77,27.88,1111122 
SCCF RECON,ioos:station:SCCF:13:1,2010-09-10T09:00:00Z,26.5255,-82.0032,2.66,27.95,1111122 
SCCF RECON,ioos:station:SCCF:13:1,2010-09-10T10:00:00Z,26.5255,-82.0032,2.52,25.36,1111122 
SCCF RECON,ioos:station:SCCF:13:1,2010-09-10T11:00:00Z,26.5255,-82.0032,2.429,16.97,1111122 
SCCF RECON,ioos:station:SCCF:13:1,2010-09-10T12:00:00Z,26.5255,-82.0032,2.341,15.41,1111122 
SCCF RECON,ioos:station:SCCF:13:1,2010-09-10T13:00:00Z,26.5255,-82.0032,2.26,14.31,1111122 
SCCF RECON,ioos:station:SCCF:13:1,2010-09-10T14:00:00Z,26.5255,-82.0032,2.22,12.81,1111122 
SCCF RECON,ioos:station:SCCF:13:1,2010-09-10T15:00:00Z,26.5255,-82.0032,2.32,11.7,1111122 
SCCF RECON,ioos:station:SCCF:13:1,2010-09-10T16:00:00Z,26.5255,-82.0032,2.493,11.04,1111122 
SCCF RECON,ioos:station:SCCF:13:1,2010-09-10T17:00:00Z,26.5255,-82.0032,2.58,13.64,1111122 
SCCF RECON,ioos:station:SCCF:13:1,2010-09-10T18:00:00Z,26.5255,-82.0032,2.643,17.21,1111122 
SCCF RECON,ioos:station:SCCF:13:1,2010-09-10T19:00:00Z,26.5255,-82.0032,2.71,23.11,1111122 
SCCF RECON,ioos:station:SCCF:13:1,2010-09-10T20:00:00Z,26.5255,-82.0032,2.731,26.11,1111122 
SCCF RECON,ioos:station:SCCF:13:1,2010-09-10T21:00:00Z,26.5255,-82.0032,2.68,25.73,1111122 
SCCF RECON,ioos:station:SCCF:13:1,2010-09-10T22:00:00Z,26.5255,-82.0032,2.6,26.99,1111122 
SCCF RECON,ioos:station:SCCF:13:1,2010-09-10T23:00:00Z,26.5255,-82.0032,2.49,25.59,1111122 
SCCF RECON,ioos:station:SCCF:13:1,2010-09-11T00:00:00Z,26.5255,-82.0032,2.42,19.05,1111122 
SCCF RECON,ioos:station:SCCF:13:1,2010-09-11T01:00:00Z,26.5255,-82.0032,2.37,14.94,1111122 
SCCF RECON,ioos:station:SCCF:13:1,2010-09-11T02:00:00Z,26.5255,-82.0032,2.329,13.14,1111122 
SCCF RECON,ioos:station:SCCF:13:1,2010-09-11T03:00:00Z,26.5255,-82.0032,2.38,12.84,1111122 
SCCF RECON,ioos:station:SCCF:13:1,2010-09-11T04:00:00Z,26.5255,-82.0032,2.55,12.18,1111122 
SCCF RECON,ioos:station:SCCF:13:1,2010-09-11T05:00:00Z,26.5255,-82.0032,2.656,16.39,1111122 
SCCF RECON,ioos:station:SCCF:13:1,2010-09-11T06:00:00Z,26.5255,-82.0032,2.72,20.57,1111122 
SCCF RECON,ioos:station:SCCF:13:1,2010-09-11T07:00:00Z,26.5255,-82.0032,2.776,24.5,1111122 
SCCF RECON,ioos:station:SCCF:13:1,2010-09-11T08:00:00Z,26.5255,-82.0032,2.789,27.31,1111122 
SCCF RECON,ioos:station:SCCF:13:1,2010-09-11T09:00:00Z,26.5255,-82.0032,2.74,27.63,1111122 
SCCF RECON,ioos:station:SCCF:13:1,2010-09-11T10:00:00Z,26.5255,-82.0032,2.64,27.71,1111122 
SCCF RECON,ioos:station:SCCF:13:1,2010-09-11T11:00:00Z,26.5255,-82.0032,2.497,24.65,1111122 
SCCF RECON,ioos:station:SCCF:13:1,2010-09-11T12:00:00Z,26.5255,-82.0032,2.399,15.68,1111122 
SCCF RECON,ioos:station:SCCF:13:1,2010-09-11T13:00:00Z,26.5255,-82.0032,2.309,14.69,1111122 
SCCF RECON,ioos:station:SCCF:13:1,2010-09-11T14:00:00Z,26.5255,-82.0032,2.223,12.94,1111122 
SCCF RECON,ioos:station:SCCF:13:1,2010-09-11T15:00:00Z,26.5255,-82.0032,2.187,11.57,1111122 
SCCF RECON,ioos:station:SCCF:13:1,2010-09-11T16:00:00Z,26.5255,-82.0032,2.299,10.39,1111122 
SCCF RECON,ioos:station:SCCF:13:1,2010-09-11T17:00:00Z,26.5255,-82.0032,2.45,9.65,1111122 
SCCF RECON,ioos:station:SCCF:13:1,2010-09-11T18:00:00Z,26.5255,-82.0032,2.511,11.52,1111122 